Location: Saint-Palais-sur-Mer
(45.6429°N, 1.0859°W)
Time: 21:40:38
(UTC+01:00)

Tiangong - Pass Details

Date: 29 November 2023
Orbit: 375 x 386 km, 41.5° (Epoch: 26 February)

Event Time Altitude Azimuth Distance (km) Brightness Sun altitude
Rises 20:01:38 0° 265° (W) 2,230 3.0 -27.1°
Reaches altitude 10° 20:04:34 10° 235° (SW) 1,376 1.4 -27.6°
Enters shadow 20:04:59 11° 227° (SW) 1,304 1.1 -27.7°
